Avian Flight Center Webcam (1 minute updates)

Looking East from Avian at mid-field (Taxiway E) towards Runway 20-2 (Click for full size image). Image will update automatically every minute.

Bremerton Airport Live Webcam

KPWT 230855Z 00000KT 10SM CLR 11/10 A3015 RMK AO1 54000

Time-lapse movie of yesterday's webcam images

If you are unable to view the movie, download and install the DivX Codec here